When you browse on this site, cookies collect data to enhance your experience and personalize the content and advertising you see.
Visit our Privacy Policy to learn more. By continuing to use the site, you agree to this use of cookies and data.

Stündliche Wetter Senaki

Heute, 13 Juli, Montag

Zeit Temperatur Niederschläge Wind Luftdruck Luftfeuchtigkeit
00:00 +22°C° 1.3 mm 0 m/S 754 mmHg 95%
01:00 +23°C° 1.4 mm 1 m/S 753 mmHg 95%
02:00 +23°C° 1.4 mm 1 m/S 753 mmHg 96%
03:00 +23°C° 0 mm 1 m/S 753 mmHg 96%
04:00 +23°C° 1.8 mm 1 m/S 753 mmHg 95%
05:00 +23°C° 1.8 mm 1 m/S 753 mmHg 95%
06:00 +23°C° 1.8 mm 1 m/S 753 mmHg 95%
07:00 +24°C° 2.3 mm 1 m/S 753 mmHg 92%
08:00 +25°C° 2.3 mm 2 m/S 752 mmHg 90%
09:00 +26°C° 0 mm 2 m/S 753 mmHg 88%
10:00 +25°C° 1.8 mm 2 m/S 753 mmHg 88%
11:00 +25°C° 1.8 mm 1 m/S 753 mmHg 89%
12:00 +25°C° 1.8 mm 1 m/S 753 mmHg 90%
13:00 +25°C° 1 mm 1 m/S 753 mmHg 90%
14:00 +25°C° 1 mm 2 m/S 753 mmHg 89%
15:00 +25°C° 1 mm 2 m/S 753 mmHg 89%
16:00 +25°C° 1.4 mm 2 m/S 753 mmHg 89%
17:00 +25°C° 1.4 mm 2 m/S 753 mmHg 90%
18:00 +25°C° 1.4 mm 2 m/S 753 mmHg 90%
19:00 +25°C° 0.7 mm 2 m/S 753 mmHg 91%
20:00 +24°C° 0.7 mm 1 m/S 754 mmHg 92%
21:00 +23°C° 0.7 mm 1 m/S 754 mmHg 93%
22:00 +23°C° 0.8 mm 1 m/S 754 mmHg 94%
23:00 +22°C° 0.8 mm 1 m/S 754 mmHg 94%

Morgen, 14 Juli, Dienstag

Zeit Temperatur Niederschläge Wind Luftdruck Luftfeuchtigkeit
00:00 +22°C° 0.8 mm 1 m/S 754 mmHg 94%
01:00 +22°C° 0.8 mm 1 m/S 755 mmHg 94%
02:00 +22°C° 0.8 mm 1 m/S 755 mmHg 94%
03:00 +22°C° 0.8 mm 1 m/S 755 mmHg 95%
04:00 +22°C° 1 mm 1 m/S 755 mmHg 94%
05:00 +22°C° 1 mm 1 m/S 755 mmHg 94%
06:00 +21°C° 1 mm 2 m/S 756 mmHg 94%
07:00 +24°C° 0.8 mm 2 m/S 756 mmHg 89%
08:00 +25°C° 0.8 mm 2 m/S 756 mmHg 85%
09:00 +26°C° 0.8 mm 3 m/S 756 mmHg 81%
10:00 +27°C° 1.3 mm 3 m/S 756 mmHg 81%
11:00 +27°C° 1.3 mm 4 m/S 756 mmHg 81%
12:00 +27°C° 1.3 mm 4 m/S 756 mmHg 82%
13:00 +27°C° 1.1 mm 4 m/S 756 mmHg 81%
14:00 +28°C° 1.1 mm 4 m/S 756 mmHg 80%
15:00 +28°C° 1.1 mm 4 m/S 756 mmHg 79%
16:00 +27°C° 0.4 mm 4 m/S 757 mmHg 79%
17:00 +27°C° 0.4 mm 3 m/S 757 mmHg 80%
18:00 +27°C° 0.4 mm 3 m/S 758 mmHg 80%
19:00 +25°C° 0.2 mm 2 m/S 758 mmHg 84%
20:00 +24°C° 0.2 mm 2 m/S 759 mmHg 88%
21:00 +23°C° 0.2 mm 1 m/S 759 mmHg 92%
22:00 +22°C° 0.1 mm 1 m/S 759 mmHg 92%
23:00 +22°C° 0.1 mm 1 m/S 759 mmHg 92%

übermorgen, 15 Juli, Mittwoch

Zeit Temperatur Niederschläge Wind Luftdruck Luftfeuchtigkeit
00:00 +22°C° 0.1 mm 1 m/S 759 mmHg 92%
01:00 +22°C° 0.1 mm 1 m/S 759 mmHg 92%
02:00 +22°C° 0.1 mm 1 m/S 759 mmHg 92%
03:00 +21°C° 0.1 mm 1 m/S 760 mmHg 91%
04:00 +22°C° 0 mm 1 m/S 759 mmHg 91%
05:00 +22°C° 0 mm 1 m/S 759 mmHg 92%
06:00 +22°C° 0 mm 1 m/S 759 mmHg 92%
07:00 +24°C° 0 mm 1 m/S 759 mmHg 85%
08:00 +26°C° 0 mm 1 m/S 759 mmHg 79%
09:00 +28°C° 0 mm 1 m/S 759 mmHg 72%
10:00 +28°C° 0 mm 1 m/S 758 mmHg 68%
11:00 +29°C° 0 mm 2 m/S 758 mmHg 63%
12:00 +30°C° 0 mm 2 m/S 758 mmHg 59%
13:00 +30°C° 0 mm 3 m/S 758 mmHg 60%
14:00 +30°C° 0 mm 3 m/S 757 mmHg 62%
15:00 +30°C° 0 mm 4 m/S 757 mmHg 63%
16:00 +29°C° 0 mm 3 m/S 758 mmHg 67%
17:00 +28°C° 0 mm 3 m/S 758 mmHg 70%
18:00 +28°C° 0 mm 3 m/S 758 mmHg 74%
19:00 +26°C° 0 mm 2 m/S 758 mmHg 79%
20:00 +25°C° 0 mm 1 m/S 759 mmHg 85%
21:00 +23°C° 0 mm 1 m/S 759 mmHg 90%
22:00 +23°C° 0 mm 1 m/S 759 mmHg 91%
23:00 +23°C° 0 mm 1 m/S 759 mmHg 92%

16 Juli, Donnerstag

Zeit Temperatur Niederschläge Wind Luftdruck Luftfeuchtigkeit
00:00 +20°C° 0 mm 0 m/S 759 mmHg 94%
01:00 +22°C° 0 mm 1 m/S 758 mmHg 94%
02:00 +22°C° 0 mm 1 m/S 758 mmHg 95%
03:00 +22°C° 0 mm 1 m/S 758 mmHg 95%
04:00 +22°C° 0 mm 1 m/S 758 mmHg 94%
05:00 +22°C° 0 mm 1 m/S 758 mmHg 93%
06:00 +23°C° 0 mm 1 m/S 757 mmHg 92%
07:00 +25°C° 0 mm 1 m/S 757 mmHg 84%
08:00 +27°C° 0 mm 1 m/S 757 mmHg 77%
09:00 +27°C° 0 mm 0 m/S 756 mmHg 69%
10:00 +30°C° 0 mm 1 m/S 756 mmHg 65%
11:00 +31°C° 0 mm 1 m/S 756 mmHg 61%
12:00 +32°C° 0 mm 1 m/S 755 mmHg 57%
13:00 +32°C° 0 mm 2 m/S 755 mmHg 58%
14:00 +31°C° 0 mm 3 m/S 755 mmHg 60%
15:00 +32°C° 0 mm 4 m/S 754 mmHg 62%
16:00 +30°C° 0 mm 3 m/S 754 mmHg 65%
17:00 +29°C° 0 mm 3 m/S 754 mmHg 69%
18:00 +28°C° 0 mm 3 m/S 754 mmHg 73%
19:00 +27°C° 0 mm 2 m/S 754 mmHg 78%
20:00 +25°C° 0 mm 1 m/S 755 mmHg 84%
21:00 +21°C° 0 mm 0 m/S 755 mmHg 89%
22:00 +21°C° 0 mm 0 m/S 755 mmHg 90%
23:00 +21°C° 0 mm 0 m/S 755 mmHg 91%

17 Juli, Freitag

Zeit Temperatur Niederschläge Wind Luftdruck Luftfeuchtigkeit
00:00 +20°C° 0 mm 0 m/S 754 mmHg 92%
01:00 +20°C° 0.1 mm 0 m/S 754 mmHg 92%
02:00 +20°C° 0.1 mm 0 m/S 754 mmHg 93%
03:00 +20°C° 0.1 mm 0 m/S 754 mmHg 93%
04:00 +20°C° 0.2 mm 0 m/S 754 mmHg 92%
05:00 +21°C° 0.2 mm 0 m/S 754 mmHg 91%
06:00 +21°C° 0.2 mm 0 m/S 754 mmHg 90%
07:00 +24°C° 0.1 mm 1 m/S 754 mmHg 85%
08:00 +26°C° 0.1 mm 1 m/S 754 mmHg 81%
09:00 +27°C° 0.1 mm 1 m/S 754 mmHg 77%
10:00 +28°C° 0.1 mm 2 m/S 754 mmHg 74%
11:00 +29°C° 0.1 mm 2 m/S 754 mmHg 71%
12:00 +29°C° 0.1 mm 3 m/S 754 mmHg 69%
13:00 +29°C° 0.5 mm 3 m/S 754 mmHg 69%
14:00 +29°C° 0.5 mm 4 m/S 754 mmHg 68%
15:00 +29°C° 0.5 mm 4 m/S 754 mmHg 68%
16:00 +28°C° 0.1 mm 4 m/S 754 mmHg 70%
17:00 +28°C° 0.1 mm 3 m/S 754 mmHg 72%
18:00 +27°C° 0.1 mm 3 m/S 755 mmHg 74%
19:00 +26°C° 0 mm 2 m/S 755 mmHg 77%
20:00 +25°C° 0 mm 1 m/S 755 mmHg 81%
21:00 +22°C° 0 mm 0 m/S 756 mmHg 85%
22:00 +21°C° 0 mm 0 m/S 756 mmHg 86%
23:00 +21°C° 0 mm 0 m/S 756 mmHg 88%

18 Juli, Samstag

Zeit Temperatur Niederschläge Wind Luftdruck Luftfeuchtigkeit
00:00 +20°C° 0 mm 0 m/S 756 mmHg 89%
01:00 +20°C° 0 mm 0 m/S 756 mmHg 90%
02:00 +22°C° 0 mm 1 m/S 756 mmHg 91%
03:00 +22°C° 0 mm 1 m/S 756 mmHg 93%
04:00 +22°C° 0 mm 1 m/S 756 mmHg 92%
05:00 +22°C° 0 mm 1 m/S 756 mmHg 91%
06:00 +23°C° 0 mm 1 m/S 756 mmHg 91%
07:00 +25°C° 0 mm 1 m/S 756 mmHg 83%
08:00 +27°C° 0 mm 1 m/S 756 mmHg 76%
09:00 +29°C° 0 mm 1 m/S 756 mmHg 69%
10:00 +30°C° 0 mm 1 m/S 755 mmHg 64%
11:00 +31°C° 0 mm 1 m/S 755 mmHg 60%
12:00 +33°C° 0 mm 1 m/S 755 mmHg 56%
13:00 +34°C° 0 mm 2 m/S 755 mmHg 57%
14:00 +34°C° 0 mm 3 m/S 755 mmHg 58%
15:00 +34°C° 0 mm 3 m/S 755 mmHg 58%
16:00 +31°C° 0 mm 3 m/S 755 mmHg 64%
17:00 +30°C° 0 mm 3 m/S 755 mmHg 69%
18:00 +29°C° 0 mm 3 m/S 755 mmHg 74%
19:00 +27°C° 0 mm 2 m/S 755 mmHg 80%
20:00 +26°C° 0 mm 1 m/S 755 mmHg 86%
21:00 +22°C° 0 mm 0 m/S 756 mmHg 92%
22:00 +22°C° 0 mm 0 m/S 756 mmHg 92%
23:00 +22°C° 0 mm 0 m/S 756 mmHg 92%
Mehr zeigen